www.pogodaiklimat.ru

Погода и климат >> Архив погоды >> Малайзия >> Пенанг


ПОГОДА в Пенанге

  • Прогноз погоды в Пенанге
  • Монитор погоды в Пенанге

АРХИВ ПОГОДЫ в Пенанге

Время (UTC), дата Ветер
(напр.,м/с)
 
Видим.   Явления Облачность Т
(С)
Тd
(С)
f
(%)
Тe
(С)
Тes
(С)
Комфортность P
(гПа)
Po
(гПа)
Тmin
(С)
Tmax
(С)
R
(мм)
R24
(мм)
S
(см)
18 15.03 СВ 1 8000 м зарница 9/4 500 м
[Cb cap Ac lent Ci fib]
+28.2 +25.4 85 +41 +41 опасность
перегрева
1011.9 1011.5
21 15.03 С 2 8000 м мгла 9/4 750 м
[Sc Ac lent Ci sp]
+27.9 +24.8 83 +40 +40 очень
душно
1010.9 1010.5
00 16.03 СВ 3 9000 м мгла 9/3 100 м
[Cu Sc Ac lent Ci fib]
+26.9 +20.9 70 +34 +34 очень
душно
1012.5 1012.1 +26.8
03 16.03 В 3 9000 м мгла 9/1 600 м
[Cu hum Ac trans Ci fib]
+32.3 +22.0 55 +41 +47 опасность
перегрева
1014.0 1013.6
06 16.03 ЮЗ 4 8000 м мгла 8/1 600 м
[Cu hum Ac trans Ci sp]
+33.9 +24.1 57 +46 +54 опасность
перегрева
1011.5 1011.1
09 16.03 З 3 10 км мгла 9/1 600 м
[Cu hum Ac trans Ci fib]
+34.5 +21.4 47 +42 +45 опасность
перегрева
1009.1 1008.7
12 16.03 ЮЗ 3 9000 м мгла 9/1 750 м
[Sc diur, vesp Ac trans Ci sp]
+30.7 +23.6 66 +42 +42 опасность
перегрева
1010.3 1009.9 +35.0
15 16.03 З 2 8000 м мгла 9/1 750 м
[Sc Ac trans Ci sp]
+29.5 +24.3 74 +41 +41 опасность
перегрева
1013.0 1012.6
18 16.03 штиль 0 8000 м мгла 9/3 750 м
[Sc Ac trans Ci sp]
+27.9 +24.5 82 +39 +39 очень
душно
1012.3 1011.9
21 16.03 СВ 1 8000 м мгла 9/4 750 м
[Sc Ac trans Ci sp]
+27.3 +24.2 83 +38 +38 очень
душно
1010.8 1010.4
00 17.03 С 2 7000 м мгла 9/1 100 м
[Cu hum Ac trans Ci fib]
+27.0 +23.8 83 +37 +38 очень
душно
1012.1 1011.7 +26.7
03 17.03 С 3 7000 м мгла 9/1 600 м
[Cu hum Ac lent Ci fib]
+32.0 +22.8 58 +42 +48 опасность
перегрева
1013.4 1013.0
06 17.03 ЮЗ 6 8000 м мгла 9/1 600 м
[Cu hum Ac trans Ci sp]
+34.9 +23.3 51 +45 +50 опасность
перегрева
1010.5 1010.1
09 17.03 З 5 8000 м мгла 9/1 600 м
[Cu hum Ac lent Ci sp]
+34.1 +21.9 49 +43 +45 опасность
перегрева
1008.3 1007.9
12 17.03 З 3 8000 м мгла 9/1 720 м
[Sc diur, vesp Ac trans Ci sp]
+31.0 +24.5 68 +43 +43 опасность
перегрева
1009.7 1009.3 +35.7
15 17.03 З 1 8000 м мгла 9/3 750 м
[Sc Ac trans Ci sp]
+29.8 +25.0 75 +43 +43 опасность
перегрева
1012.2 1011.8
18 17.03 штиль 0 8000 м зарница 9/4 500 м
[Cb cap Ac trans Ci fib]
+29.0 +25.4 81 +43 +43 опасность
перегрева
1011.6 1011.2
21 17.03 штиль 0 8000 м зарница 9/3 500 м
[Cb cap Ac lent Ci sp]
+28.1 +25.4 85 +41 +41 опасность
перегрева
1010.3 1009.9
00 18.03 В 3 8000 м осадки на расстоянии 9/5 50 м
[Cb cap Ac trans Ci fib]
+28.2 +24.3 79 +39 +40 очень
душно
1011.3 1010.9 +27.1
03 18.03 В 2 7000 м мгла 9/1 600 м
[Cu hum Ac trans Ci fib]
+31.9 +24.8 66 +45 +53 опасность
перегрева
1012.5 1012.1
06 18.03 Ю 4 10 км мгла 9/3 600 м
[Cu med, cong Ac trans Ci fib]
+34.9 +21.8 47 +43 +49 опасность
перегрева
1010.0 1009.6
09 18.03 З 5 9000 м мгла 9/3 600 м
[Cu med, cong Ac trans Ci fib]
+33.3 +23.7 57 +44 +46 опасность
перегрева
1007.7 1007.3
12 18.03 З 3 9000 м зарница 9/3 500 м
[Cb cap Ac trans Ci sp]
+30.3 +24.6 72 +43 +43 опасность
перегрева
1009.2 1008.8 +35.5
15 18.03 З 1 7000 м мгла 9/3 750 м
[Sc Ac trans Ci sp]
+29.8 +24.9 75 +43 +43 опасность
перегрева
1011.7 1011.3
18 18.03 штиль 0 8000 м мгла 9/3 750 м
[Sc Ac trans Ci sp]
+28.2 +25.0 83 +41 +41 опасность
перегрева
1010.7 1010.3
21 18.03 С 2 9000 м мгла 9/3 750 м
[Sc Ac trans Ci sp]
+27.6 +24.5 83 +39 +39 очень
душно
1009.3 1008.9
00 19.03 С 2 8000 м мгла 9/1 100 м
[Cu hum Ac trans Ci sp]
+27.9 +21.6 69 +36 +36 очень
душно
1011.0 1010.6 +26.7
03 19.03 СВ 4 8000 м мгла 9/1 600 м
[Cu hum Ac trans Ci fib]
+32.8 +23.3 57 +43 +49 опасность
перегрева
1012.6 1012.2
06 19.03 ЮЗ 5 8000 м мгла 9/3 600 м
[Cu med, cong Ac lent Ci fib]
+34.6 +23.9 54 +46 +51 опасность
перегрева
1009.4 1009.0
09 19.03 З 4 10 км мгла 9/1 600 м
[Cu hum Ac trans Ci fib]
+33.2 +24.4 60 +46 +48 опасность
перегрева
1006.6 1006.2
12 19.03 ЮЗ 2 8000 м мгла 9/1 750 м
[Sc Ac lent Ci fib]
+30.3 +24.9 73 +43 +43 опасность
перегрева
1007.1 1006.7 +35.6
15 19.03 З 1 8000 м мгла 9/3 750 м
[Sc Ac trans Ci fib]
+30.0 +25.5 77 +44 +44 опасность
перегрева
1010.5 1010.1
18 19.03 штиль 0 9000 м в посл. час гроза 9/3 500 м
[Cb cap Ac trans Ci sp]
+29.1 +25.4 80 +42 +42 опасность
перегрева
1009.9 1009.5
21 19.03 СВ 3 8000 м гроза без осадков 9/4 500 м
[Cb cap Ac lent Ci sp]
+27.0 +24.0 84 +37 +37 очень
душно
1008.9 1008.5
00 20.03 штиль 0 7000 м мгла 9/4 1000 м
[Cu Sc Ac trans Ci sp]
+27.6 +24.6 84 +39 +39 очень
душно
1010.2 1009.8 +26.5
03 20.03 ЮЗ 3 8000 м в посл. час дождь 9/5 600 м
[Cu Sc Ac lent Ci sp]
+28.3 +25.8 86 +42 +46 опасность
перегрева
1012.6 1012.2
06 20.03 З 2 9000 м мгла {дождь} 9/3 500 м
[Cb cap Ac trans Ci sp]
+32.8 +25.0 64 +47 +55 опасность
перегрева
1009.9 1009.5 0.4
09 20.03 ЮЗ 5 9000 м мгла 9/3 500 м
[Cb cap Ac trans Ci sp]
+31.9 +23.8 62 +43 +45 опасность
перегрева
1007.5 1007.1
12 20.03 ЮЗ 4 9000 м мгла 9/3 750 м
[Sc Ac trans Ci sp]
+29.6 +24.4 74 +42 +42 опасность
перегрева
1008.1 1007.7 +33.0
15 20.03 З 2 9000 м мгла 9/1 750 м
[Sc Ac trans Ci sp]
+28.9 +25.5 82 +43 +43 опасность
перегрева
1011.4 1011.0
18 20.03 штиль 0 9000 м зарница 9/3 500 м
[Cb cap Ac lent Ci fib]
+27.6 +25.3 87 +40 +40 очень
душно
1010.9 1010.5
21 20.03 С 2 8000 м зарница 9/3 500 м
[Cb cap Ac trans Ci sp]
+27.3 +24.4 84 +38 +38 очень
душно
1009.1 1008.7
00 21.03 С 2 9000 м мгла 9/4 50 м
[Cb cap Ac lent Ci fib]
+27.3 +24.6 85 +39 +39 очень
душно
1010.4 1010.0 +26.7 0.4
03 21.03 СВ 5 8000 м мгла 9/1 600 м
[Cu hum Ac lent Ci fib]
+32.0 +24.5 65 +45 +49 опасность
перегрева
1012.1 1011.7
06 21.03 ЮЗ 4 9000 м мгла 9/3 600 м
[Cu med, cong Ac trans Ci sp]
+34.1 +22.9 52 +44 +50 опасность
перегрева
1010.4 1010.0
09 21.03 З 4 10 км мгла 9/1 600 м
[Cu hum Ac trans Ci sp]
+32.7 +19.6 46 +38 +41 очень
душно
1007.4 1007.0
12 21.03 ЮЗ 2 10 км мгла 9/3 660 м
[Cu Sc Ac trans Ci sp]
+29.9 +24.2 72 +42 +42 опасность
перегрева
1008.7 1008.3 +35.4
15 21.03 СЗ 2 9000 м мгла 9/1 750 м
[Sc Ac trans Ci sp]
+29.8 +24.3 72 +42 +42 опасность
перегрева
1012.2 1011.8
18 21.03 СВ 1 9000 м гроза без осадков 9/4 500 м
[Cb cap Ac lent Ci fib]
+27.9 +24.8 83 +40 +40 очень
душно
1011.7 1011.3
21 21.03 штиль 0 8000 м в посл. час гроза 9/1 750 м
[Sc Ac trans Ci sp]
+26.6 +24.3 87 +37 +37 очень
душно
1009.9 1009.5
00 22.03 штиль 0 9000 м мгла {гроза} 9/3 500 м
[Cb cap Ac lent Ci fib]
+26.3 +23.9 87 +36 +37 очень
душно
1010.9 1010.5 +25.1
03 22.03 ЮВ 3 7000 м мгла 9/3 500 м
[Cb cap Ac lent Ci fib]
+32.4 +24.2 62 +45 +49 опасность
перегрева
1012.4 1012.0
06 22.03 З 4 9000 м мгла 9/3 600 м
[Cu med, cong Ac trans Ci sp]
+34.0 +24.1 56 +46 +52 опасность
перегрева
1009.9 1009.5
09 22.03 З 4 9000 м мгла 9/1 600 м
[Cu med, cong Ac lent Ci fib]
+33.2 +24.8 61 +46 +49 опасность
перегрева
1007.2 1006.8
12 22.03 З 4 9000 м зарница 9/4 500 м
[Cb cap Ac trans Ci fib]
+30.6 +25.9 76 +46 +46 опасность
перегрева
1008.2 1007.8 +34.3
15 22.03 З 3 9000 м зарница 9/3 500 м
[Cb cap Ac trans Ci sp]
+30.5 +25.7 76 +45 +45 опасность
перегрева
1010.6 1010.2

 

Местоположение метеостанции Пенанг (Малайзия): широта 5.30 долгота 100.26 высота над уровнем моря 4 м.

В архиве по умолчанию представлена погода в Пенанге за последнюю неделю. Архивные данные за месяц целиком и за предыдущие месяцы, начиная с января 2011 года, Вы можете получить, выбрав интересующий диапазон дат из раскрывающегося списка и нажав кнопку "Ввод!".


*Определитесь, кто Вы:
робот инопланетянин человек

Внимание! Время в таблицах - всемирное. Для получения местного времени необходимо прибавить поправку, которая равна 7 ч.

Смотрите также архив погоды в соседних городах и на ближайших метеорологических станциях:

Погода на Авиабазе Баттерворт (Малайзия) (23 км)
Погода в Алор Стар (Малайзия) (101 км)
Погода в Ипохе (Малайзия) (124 км)
Погода в Лангкави (Малайзия) (129 км)
Погода в Ситаване (Малайзия) (130 км)
Погода в Сатуне (Таиланд) (151 км)
Погода в Хо Хонг Агромете (Таиланд) (151 км)
Погода на Нагорье Кэмерон (Малайзия) (154 км)
Погода в Садао (Таиланд) (168 км)
Погода в Яла Агромете (Таиланд) (176 км)

Пояснения к столбцам:

Ветер - указаны скорость ветра в м/с - средняя за 10 мин, порывы в срок и между сроками (в фигурных скобках) и направление, откуда дует ветер: С - северный, СВ - северо-восточный, В - восточный, ЮВ - юго-восточный, Ю - южный, ЮЗ - юго-западный, З - западный, СЗ - северо-западный.
Видимость - горизонтальная дальность видимости в метрах или километрах. При видимости от 1 до 10 км при отсутствии осадков обычно наблюдается дымка, при ухудшении видимости до 1 км и менее - туман. В сухую погоду видимость может ухудшаться дымом, пылью или мглою.
Явления - указаны атмосферные явления, наблюдавшиеся в срок или в последний час перед сроком; фигурными скобками обозначены явления, наблюдавшиеся между сроками (за 1-3 часа до срока); квадратными скобками обозначены град или гололедные отложения с указанием их диаметра в мм.
Облачность - указаны через наклонную черту общая и нижняя облачность в баллах и высота нижней границы облаков в метрах; квадратными скобками обозначены формы облаков: Ci - перистые, Cs - перисто-слоистые, Cc - перисто-кучевые, Ac - высококучевые, As - высокослоистые, Sc - слоисто-кучевые, Ns - слоисто-дождевые, Cu - кучевые, Cb - кучево-дождевые. Подробнее классификацию облаков см. в Атласе облаков (PDF).
T - Температура воздуха - температура, измеренная на высоте 2 м над землей.
Td - Температура точки росы - температура, при понижении до которой содержащийся в воздухе водяной пар достигнет насыщения.
f - Относительная влажность воздуха - влажноcть воздуха, измеренная на высоте 2 м над землей.
Te - Эффективная температура - температура, которую ощущает одетый по сезону человек в тени. Характеристика душности погоды. При расчете учитывается влияние влажности воздуха и скорости ветра на теплоощущения человека.
Tes - Эффективная температура на солнце - температура, которую ощущает человек, с поправкой на солнечный нагрев. Характеристика знойности погоды. Зависит от высоты солнца над горизонтом, облачности и скорости ветра. Ночью, в пасмурную погоду, а также при ветре 12 м/с и более поправка равна нулю.
P - Атмосферное давление - приведенное к уровню моря атмосферное давление.
Po - Атмосферное давление - измеренное на уровне метеостанции атмосферное давление.
Tmin - Минимальная температура - минимум температуры воздуха на высоте 2 м над землей.
Tmax - Максимальная температура - максимум температуры воздуха на высоте 2 м над землей.
R - Количество осадков - Количество выпавших осадков за период времени, мм. При наведении курсора мыши на число - период времени, за который выпало указанное количество осадков.
R24 - Количество осадков - Количество выпавших осадков за 24 часа, мм.
S - Снежный покров - Высота снежного покрова, см. При наведении курсора мыши на число - состояние снежного покрова и степень покрытия местности в баллах.